Back to catalog

STARLINK-33595

AliveCommunicationsVLEO
NORAD 62766·PAYLOAD·🇺🇸 United States

Launched Jan 21, 2025 from Vandenberg Space Force Base

Loading…

Next Passes (next 24 hours)

TLE

FreshSource: CelesTrak SupGP

Epoch: Sep 14, 2026, 14:38 UTC

1 62766C 25015J   26257.61020833  .00071768  00000+0  21208-2 0  2575
2 62766  53.1567 160.9255 0001103  86.2010 227.5842 15.34349393    11

Track STARLINK-33595 in real time with AllMySat

Download on the App Store